Time,TemperatureF,DewpointF,PressureIn,WindDirection,WindDirectionDegrees,WindSpeedMPH,WindSpeedGustMPH,Humidity,HourlyPrecipIn,Conditions,Clouds,dailyrainin,SolarRadiationWatts/m^2,SoftwareType,DateUTC
2013-06-27 00:00:00,74.9,71.4,29.83,SSE,165,0.0,0.0,89,0.00,,CLR,0.00,0.00,VWS V14.01,2013-06-27 04:00:00,
2013-06-27 00:01:00,74.9,71.4,29.83,SSE,165,0.0,0.0,89,0.00,,CLR,0.00,0.00,VWS V14.01,2013-06-27 04:01:00,
2013-06-27 00:06:00,75.1,71.6,29.83,SSE,165,0.0,0.0,89,0.00,,BKN042,0.00,0.00,VWS V14.01,2013-06-27 04:06:00,
2013-06-27 00:11:00,75.1,71.6,29.83,SSE,165,0.0,0.0,89,0.00,,BKN042,0.00,0.00,VWS V14.01,2013-06-27 04:11:00,
2013-06-27 00:16:00,75.1,72.0,29.83,SSE,165,0.0,0.0,90,0.00,,BKN042,0.00,0.00,VWS V14.01,2013-06-27 04:16:00,
2013-06-27 00:21:00,75.3,72.5,29.83,SSE,165,0.0,0.0,91,0.00,,BKN042,0.00,0.00,VWS V14.01,2013-06-27 04:21:00,
2013-06-27 00:26:00,75.3,72.2,29.83,SSE,165,0.0,0.0,90,0.00,,BKN042,0.00,0.00,VWS V14.01,2013-06-27 04:26:00,
2013-06-27 00:30:00,75.1,71.3,29.82,SSE,151,0.0,0.0,88,0.00,,OVC065,0.00,0.00,VWS V14.01,2013-06-27 04:30:00,
2013-06-27 00:31:00,75.4,72.3,29.83,SSE,165,0.0,0.0,90,0.00,,BKN042,0.00,0.00,VWS V14.01,2013-06-27 04:31:00,
2013-06-27 00:36:00,75.4,72.3,29.83,South,171,0.0,0.0,90,0.00,,BKN042,0.00,0.00,VWS V14.01,2013-06-27 04:36:00,
2013-06-27 00:41:00,75.3,72.2,29.83,SSW,213,0.0,0.0,90,0.00,,,0.00,0.00,VWS V14.01,2013-06-27 04:41:00,
2013-06-27 00:46:00,75.1,71.6,29.83,WSW,257,0.0,0.0,89,0.00,,,0.00,0.00,VWS V14.01,2013-06-27 04:46:00,
2013-06-27 00:51:00,75.1,71.6,29.83,WSW,257,0.0,0.0,89,0.00,,,0.00,0.00,VWS V14.01,2013-06-27 04:51:00,
2013-06-27 00:56:00,74.9,71.4,29.83,WSW,257,0.0,0.0,89,0.00,,,0.00,0.00,VWS V14.01,2013-06-27 04:56:00,
2013-06-27 01:00:00,74.9,71.4,29.83,SSE,165,0.0,0.0,89,0.00,,OVC065,0.00,0.00,VWS V14.01,2013-06-27 05:00:00,
2013-06-27 01:01:00,74.9,71.8,29.82,WSW,257,0.0,0.0,90,0.00,,,0.00,0.00,VWS V14.01,2013-06-27 05:01:00,
2013-06-27 01:06:00,75.1,72.0,29.82,WSW,257,0.0,0.0,90,0.00,,FEW036,0.00,0.00,VWS V14.01,2013-06-27 05:06:00,
2013-06-27 01:11:00,74.9,71.8,29.82,WSW,257,0.0,0.0,90,0.00,,FEW036,0.00,0.00,VWS V14.01,2013-06-27 05:11:00,
2013-06-27 01:16:00,74.9,71.4,29.81,WSW,257,0.0,0.0,89,0.00,,FEW036,0.00,0.00,VWS V14.01,2013-06-27 05:16:00,
2013-06-27 01:21:00,74.9,71.4,29.81,WSW,257,0.0,0.0,89,0.00,,FEW048,0.00,0.00,VWS V14.01,2013-06-27 05:21:00,
2013-06-27 01:26:00,74.7,71.6,29.81,WSW,257,0.0,0.0,90,0.00,,FEW048,0.00,0.00,VWS V14.01,2013-06-27 05:26:00,
2013-06-27 01:30:00,75.4,72.3,29.83,SSE,165,0.0,0.0,90,0.00,,OVC065,0.00,0.00,VWS V14.01,2013-06-27 05:30:00,
2013-06-27 01:31:00,74.7,71.6,29.82,SW,219,0.0,0.0,90,0.00,,FEW048,0.00,0.00,VWS V14.01,2013-06-27 05:31:00,
2013-06-27 01:36:00,75.1,72.6,29.82,South,187,0.0,0.0,92,0.00,,FEW048,0.00,0.00,VWS V14.01,2013-06-27 05:36:00,
2013-06-27 01:41:00,75.1,72.6,29.82,South,187,0.0,0.0,92,0.00,,FEW048,0.00,0.00,VWS V14.01,2013-06-27 05:41:00,
2013-06-27 01:46:00,75.3,73.1,29.82,South,187,0.0,0.0,93,0.00,,FEW048,0.00,0.00,VWS V14.01,2013-06-27 05:46:00,
2013-06-27 01:51:00,75.1,72.6,29.82,South,187,0.0,0.0,92,0.00,,FEW048,0.00,0.00,VWS V14.01,2013-06-27 05:51:00,
2013-06-27 01:56:00,74.9,72.4,29.82,South,187,0.0,0.0,92,0.00,,FEW048,0.00,0.00,VWS V14.01,2013-06-27 05:56:00,
2013-06-27 02:00:00,74.9,71.8,29.82,WSW,257,0.0,0.0,90,0.00,,OVC065,0.00,0.00,VWS V14.01,2013-06-27 06:00:00,
2013-06-27 02:01:00,74.7,72.6,29.80,South,187,0.0,0.0,93,0.00,,FEW048,0.00,0.00,VWS V14.01,2013-06-27 06:01:00,
2013-06-27 02:06:00,74.7,72.6,29.80,South,187,0.0,0.0,93,0.00,,BKN110,0.00,0.00,VWS V14.01,2013-06-27 06:06:00,
2013-06-27 02:11:00,74.7,72.9,29.80,South,187,0.0,0.0,94,0.00,,BKN110,0.00,0.00,VWS V14.01,2013-06-27 06:11:00,
2013-06-27 02:16:00,74.7,72.9,29.79,South,187,0.0,0.0,94,0.00,,BKN110,0.00,0.00,VWS V14.01,2013-06-27 06:16:00,
2013-06-27 02:21:00,74.7,72.6,29.79,South,187,0.0,0.0,93,0.00,,CLR,0.00,0.00,VWS V14.01,2013-06-27 06:21:00,
2013-06-27 02:26:00,74.7,72.6,29.79,South,187,0.0,0.0,93,0.00,,CLR,0.00,0.00,VWS V14.01,2013-06-27 06:26:00,
2013-06-27 02:30:00,74.7,71.6,29.82,WSW,257,0.0,0.0,90,0.00,,OVC065,0.00,0.00,VWS V14.01,2013-06-27 06:30:00,
2013-06-27 02:31:00,74.7,72.6,29.78,South,187,0.0,0.0,93,0.00,,CLR,0.00,0.00,VWS V14.01,2013-06-27 06:31:00,
2013-06-27 02:36:00,74.6,72.4,29.78,South,187,0.0,0.0,93,0.00,,CLR,0.00,0.00,VWS V14.01,2013-06-27 06:36:00,
2013-06-27 02:41:00,74.6,72.4,29.78,South,187,0.0,0.0,93,0.00,,CLR,0.00,0.00,VWS V14.01,2013-06-27 06:41:00,
2013-06-27 02:46:00,74.6,72.8,29.79,South,187,0.0,0.0,94,0.00,,CLR,0.00,0.00,VWS V14.01,2013-06-27 06:46:00,
2013-06-27 02:51:00,74.6,72.8,29.79,South,187,0.0,0.0,94,0.00,,CLR,0.00,0.00,VWS V14.01,2013-06-27 06:51:00,
2013-06-27 02:56:00,74.6,72.8,29.79,South,187,0.0,0.0,94,0.00,,CLR,0.00,0.00,VWS V14.01,2013-06-27 06:56:00,
2013-06-27 03:00:00,74.7,72.5,29.80,South,187,0.0,0.0,93,0.00,,OVC065,0.00,0.00,VWS V14.01,2013-06-27 07:00:00,
2013-06-27 03:01:00,74.6,72.8,29.78,South,187,0.0,0.0,94,0.00,,CLR,0.00,0.00,VWS V14.01,2013-06-27 07:01:00,
2013-06-27 03:06:00,74.4,72.6,29.78,South,187,0.0,0.0,94,0.00,,CLR,0.00,0.00,VWS V14.01,2013-06-27 07:06:00,
2013-06-27 03:11:00,74.4,72.6,29.78,South,187,0.0,0.0,94,0.00,,CLR,0.00,0.00,VWS V14.01,2013-06-27 07:11:00,
2013-06-27 03:16:00,74.6,72.8,29.78,SW,226,0.0,0.0,94,0.00,,CLR,0.00,0.00,VWS V14.01,2013-06-27 07:16:00,
2013-06-27 03:21:00,74.6,72.4,29.78,SW,226,0.0,0.0,93,0.00,,CLR,0.00,0.00,VWS V14.01,2013-06-27 07:21:00,
2013-06-27 03:26:00,74.6,72.4,29.78,SW,225,0.0,0.0,93,0.00,,CLR,0.00,0.00,VWS V14.01,2013-06-27 07:26:00,
2013-06-27 03:30:00,74.7,72.5,29.78,South,187,0.0,0.0,93,0.00,,OVC065,0.00,0.00,VWS V14.01,2013-06-27 07:30:00,
2013-06-27 03:31:00,74.4,71.9,29.77,SW,225,0.0,0.0,92,0.00,,CLR,0.00,0.00,VWS V14.01,2013-06-27 07:31:00,
2013-06-27 03:36:00,74.2,71.7,29.77,SW,225,0.0,0.0,92,0.00,,CLR,0.00,0.00,VWS V14.01,2013-06-27 07:36:00,
2013-06-27 03:41:00,74.2,71.7,29.77,SW,225,0.0,0.0,92,0.00,,CLR,0.00,0.00,VWS V14.01,2013-06-27 07:41:00,
2013-06-27 03:46:00,74.2,72.1,29.75,SW,223,0.0,0.0,93,0.00,,CLR,0.00,0.00,VWS V14.01,2013-06-27 07:46:00,
2013-06-27 03:51:00,74.2,72.1,29.75,SW,225,0.0,0.0,93,0.00,,CLR,0.00,0.00,VWS V14.01,2013-06-27 07:51:00,
2013-06-27 03:56:00,74.4,72.6,29.75,SSW,213,0.0,0.0,94,0.00,,CLR,0.00,0.00,VWS V14.01,2013-06-27 07:56:00,
2013-06-27 04:00:00,74.6,72.8,29.78,South,187,0.0,0.0,94,0.00,,OVC065,0.00,0.00,VWS V14.01,2013-06-27 08:00:00,
2013-06-27 04:01:00,74.6,72.8,29.75,SSW,213,0.0,0.0,94,0.00,,CLR,0.00,0.00,VWS V14.01,2013-06-27 08:01:00,
2013-06-27 04:06:00,74.7,73.2,29.75,West,265,0.0,0.0,95,0.00,,-RA,0.00,0.00,VWS V14.01,2013-06-27 08:06:00,
2013-06-27 04:11:00,74.9,73.1,29.75,West,265,0.0,0.0,94,0.00,,-RA,0.00,0.00,VWS V14.01,2013-06-27 08:11:00,
2013-06-27 04:16:00,74.9,72.7,29.75,WSW,246,0.0,0.0,93,0.00,,-RA,0.00,0.00,VWS V14.01,2013-06-27 08:16:00,
2013-06-27 04:21:00,75.1,72.9,29.75,WSW,247,0.0,0.0,93,0.00,,-RA,0.00,0.00,VWS V14.01,2013-06-27 08:21:00,
2013-06-27 04:26:00,75.1,72.9,29.75,WSW,247,0.0,0.0,93,0.00,,-RA,0.00,0.00,VWS V14.01,2013-06-27 08:26:00,
2013-06-27 04:30:00,74.4,71.9,29.77,SW,225,0.0,0.0,92,0.00,,OVC065,0.00,0.00,VWS V14.01,2013-06-27 08:30:00,
2013-06-27 04:31:00,75.1,72.9,29.75,WNW,286,0.0,0.0,93,0.00,,-RA,0.00,0.00,VWS V14.01,2013-06-27 08:31:00,
2013-06-27 04:36:00,75.1,72.6,29.75,WNW,295,0.0,0.0,92,0.00,,-RA,0.00,0.00,VWS V14.01,2013-06-27 08:36:00,
2013-06-27 04:41:00,74.9,72.4,29.75,West,265,0.0,0.0,92,0.00,,-RA,0.00,0.00,VWS V14.01,2013-06-27 08:41:00,
2013-06-27 04:46:00,74.9,72.4,29.77,West,266,0.0,0.0,92,0.00,,-RA,0.00,0.00,VWS V14.01,2013-06-27 08:46:00,
2013-06-27 04:51:00,74.7,72.2,29.77,West,266,0.0,0.0,92,0.00,,-RA,0.00,0.00,VWS V14.01,2013-06-27 08:51:00,
2013-06-27 04:56:00,74.7,72.2,29.77,West,266,0.0,0.0,92,0.00,,-RA,0.00,0.00,VWS V14.01,2013-06-27 08:56:00,
2013-06-27 05:00:00,74.6,72.8,29.75,SSW,213,0.0,0.0,94,0.00,,OVC065,0.00,0.00,VWS V14.01,2013-06-27 09:00:00,
2013-06-27 05:01:00,74.7,72.2,29.76,West,266,0.0,0.0,92,0.00,,-RA,0.00,0.00,VWS V14.01,2013-06-27 09:01:00,
2013-06-27 05:06:00,74.6,72.4,29.76,WSW,257,0.0,0.0,93,0.00,,FEW120,0.00,0.00,VWS V14.01,2013-06-27 09:06:00,
2013-06-27 05:11:00,74.6,72.4,29.76,WSW,257,0.0,0.0,93,0.00,,FEW120,0.00,0.00,VWS V14.01,2013-06-27 09:11:00,
2013-06-27 05:16:00,74.7,72.6,29.77,WNW,298,0.0,0.0,93,0.00,,FEW120,0.00,0.00,VWS V14.01,2013-06-27 09:16:00,
2013-06-27 05:21:00,74.7,72.2,29.77,WNW,298,0.0,0.0,92,0.00,,FEW120,0.00,0.00,VWS V14.01,2013-06-27 09:21:00,
2013-06-27 05:26:00,74.7,72.2,29.77,WNW,297,0.0,0.0,92,0.00,,FEW120,0.00,0.00,VWS V14.01,2013-06-27 09:26:00,
2013-06-27 05:30:00,75.1,72.9,29.75,NW,306,0.0,0.0,93,0.00,,OVC065,0.00,0.00,VWS V14.01,2013-06-27 09:30:00,
2013-06-27 05:31:00,74.9,72.7,29.77,WNW,297,0.0,0.0,93,0.00,,FEW120,0.00,0.00,VWS V14.01,2013-06-27 09:31:00,
2013-06-27 05:36:00,74.7,72.2,29.77,WNW,297,0.0,0.0,92,0.00,,FEW120,0.00,0.00,VWS V14.01,2013-06-27 09:36:00,
2013-06-27 05:41:00,74.7,72.2,29.77,WNW,297,0.0,0.0,92,0.00,,FEW120,0.00,0.00,VWS V14.01,2013-06-27 09:41:00,
2013-06-27 05:46:00,74.7,72.2,29.76,WNW,297,0.0,0.0,92,0.00,,FEW120,0.00,0.00,VWS V14.01,2013-06-27 09:46:00,
2013-06-27 05:51:00,74.7,72.2,29.76,WNW,297,0.0,0.0,92,0.00,,FEW120,0.00,0.00,VWS V14.01,2013-06-27 09:51:00,
2013-06-27 05:56:00,74.6,72.1,29.76,WNW,297,0.0,0.0,92,0.00,,FEW120,0.00,0.00,VWS V14.01,2013-06-27 09:56:00,
2013-06-27 06:00:00,74.7,72.2,29.76,West,266,0.0,0.0,92,0.00,,OVC065,0.00,0.00,VWS V14.01,2013-06-27 10:00:00,
2013-06-27 06:01:00,74.6,72.1,29.77,WNW,297,0.0,0.0,92,0.00,,FEW120,0.00,0.00,VWS V14.01,2013-06-27 10:01:00,
2013-06-27 06:06:00,74.4,71.9,29.77,WNW,297,0.0,0.0,92,0.00,,,0.00,0.00,VWS V14.01,2013-06-27 10:06:00,
2013-06-27 06:11:00,74.4,71.6,29.77,WNW,297,0.0,0.0,91,0.00,,,0.00,0.00,VWS V14.01,2013-06-27 10:11:00,
2013-06-27 06:16:00,74.4,71.9,29.78,WNW,298,0.0,0.0,92,0.00,,,0.00,0.00,VWS V14.01,2013-06-27 10:16:00,
2013-06-27 06:21:00,74.2,71.4,29.78,NW,306,0.0,0.0,91,0.00,,,0.00,0.00,VWS V14.01,2013-06-27 10:21:00,
2013-06-27 06:26:00,74.0,71.2,29.78,NW,307,0.0,0.0,91,0.00,,,0.00,0.00,VWS V14.01,2013-06-27 10:26:00,
2013-06-27 06:30:00,74.9,72.7,29.77,WNW,297,0.0,0.0,93,0.00,,OVC065,0.00,0.00,VWS V14.01,2013-06-27 10:30:00,
2013-06-27 06:31:00,73.9,71.1,29.78,NW,305,0.0,0.0,91,0.00,,,0.00,0.00,VWS V14.01,2013-06-27 10:31:00,
2013-06-27 06:36:00,73.9,71.1,29.78,WNW,296,0.0,0.0,91,0.00,,,0.00,0.00,VWS V14.01,2013-06-27 10:36:00,
2013-06-27 06:41:00,73.9,70.8,29.78,WNW,296,0.0,0.0,90,0.00,,,0.00,0.00,VWS V14.01,2013-06-27 10:41:00,
2013-06-27 06:46:00,73.9,70.8,29.79,WNW,296,0.0,0.0,90,0.00,,,0.00,0.00,VWS V14.01,2013-06-27 10:46:00,
2013-06-27 06:51:00,74.0,71.2,29.79,NNE,33,0.0,0.0,91,0.00,,,0.00,5.00,VWS V14.01,2013-06-27 10:51:00,
2013-06-27 06:56:00,74.4,71.3,29.79,NNE,13,7.0,10.0,90,0.00,,,0.00,9.00,VWS V14.01,2013-06-27 10:56:00,
2013-06-27 07:00:00,74.6,72.1,29.77,WNW,297,0.0,0.0,92,0.00,,OVC065,0.00,0.00,VWS V14.01,2013-06-27 11:00:00,
2013-06-27 07:01:00,74.6,70.8,29.77,North,5,4.0,5.0,88,0.00,,,0.00,16.00,VWS V14.01,2013-06-27 11:01:00,
2013-06-27 07:06:00,74.4,69.9,29.77,NE,38,0.0,5.0,86,0.00,,-RA,0.00,25.00,VWS V14.01,2013-06-27 11:06:00,
2013-06-27 07:11:00,74.6,70.1,29.77,NE,38,1.0,5.0,86,0.00,,-RA,0.00,30.00,VWS V14.01,2013-06-27 11:11:00,
2013-06-27 07:16:00,74.7,69.9,29.76,NE,38,2.0,5.0,85,0.00,,-RA,0.00,44.00,VWS V14.01,2013-06-27 11:16:00,
2013-06-27 07:21:00,74.9,70.4,29.76,NE,38,0.0,5.0,86,0.00,,-RA,0.00,51.00,VWS V14.01,2013-06-27 11:21:00,
2013-06-27 07:26:00,74.7,69.9,29.76,NE,38,0.0,5.0,85,0.00,,-RA,0.00,56.00,VWS V14.01,2013-06-27 11:26:00,
2013-06-27 07:30:00,73.9,71.1,29.78,NW,305,0.0,0.0,91,0.00,,OVC065,0.00,0.00,VWS V14.01,2013-06-27 11:30:00,
2013-06-27 07:31:00,74.7,70.2,29.76,NE,38,0.0,0.0,86,0.00,,-RA,0.00,70.00,VWS V14.01,2013-06-27 11:31:00,
2013-06-27 07:36:00,74.7,70.2,29.76,NE,38,0.0,0.0,86,0.00,,-RA,0.00,81.00,VWS V14.01,2013-06-27 11:36:00,
2013-06-27 07:41:00,74.7,70.2,29.76,NE,38,0.0,0.0,86,0.00,,,0.00,86.00,VWS V14.01,2013-06-27 11:41:00,
2013-06-27 07:46:00,74.7,70.2,29.76,NE,40,0.0,0.0,86,0.00,,,0.00,90.00,VWS V14.01,2013-06-27 11:46:00,
2013-06-27 07:51:00,74.9,70.8,29.76,NE,40,0.0,0.0,87,0.00,,,0.00,93.00,VWS V14.01,2013-06-27 11:51:00,
2013-06-27 07:56:00,74.9,70.8,29.76,NE,40,0.0,1.0,87,0.00,,,0.00,98.00,VWS V14.01,2013-06-27 11:56:00,
2013-06-27 08:00:00,74.6,70.8,29.77,North,5,5.0,10.0,88,0.00,,OVC065,0.00,16.00,VWS V14.01,2013-06-27 12:00:00,
2013-06-27 08:01:00,75.1,70.6,29.76,NE,40,0.0,0.0,86,0.00,,,0.00,105.00,VWS V14.01,2013-06-27 12:01:00,
2013-06-27 08:06:00,75.3,71.2,29.76,NE,40,0.0,0.0,87,0.00,,,0.00,113.00,VWS V14.01,2013-06-27 12:06:00,
2013-06-27 08:11:00,75.4,70.9,29.76,NE,40,0.0,0.0,86,0.00,,,0.00,125.00,VWS V14.01,2013-06-27 12:11:00,
2013-06-27 08:16:00,75.6,70.8,29.76,NE,40,0.0,0.0,85,0.00,,,0.00,153.00,VWS V14.01,2013-06-27 12:16:00,
2013-06-27 08:21:00,75.8,71.0,29.76,NE,40,0.0,0.0,85,0.00,,,0.00,179.00,VWS V14.01,2013-06-27 12:21:00,
2013-06-27 08:26:00,76.0,71.5,29.76,WNW,294,0.0,3.0,86,0.00,,,0.00,185.00,VWS V14.01,2013-06-27 12:26:00,
2013-06-27 08:30:00,76.1,71.9,29.75,WNW,288,0.0,4.0,87,0.00,,,0.00,158.00,VWS V14.01,2013-06-27 12:30:00,
2013-06-27 08:35:00,76.1,72.3,29.75,West,275,0.0,5.0,88,0.00,,,0.00,116.00,VWS V14.01,2013-06-27 12:35:00,
2013-06-27 08:40:00,76.3,72.5,29.75,West,261,0.0,5.0,88,0.00,,,0.00,100.00,VWS V14.01,2013-06-27 12:40:00,
2013-06-27 08:45:00,76.3,72.5,29.76,WSW,254,3.0,5.0,88,0.00,,,0.00,100.00,VWS V14.01,2013-06-27 12:45:00,
2013-06-27 08:50:00,76.1,72.3,29.76,West,264,0.0,5.0,88,0.00,,,0.00,107.00,VWS V14.01,2013-06-27 12:50:00,
2013-06-27 08:55:00,76.1,72.3,29.76,West,269,4.0,6.0,88,0.00,,,0.00,120.00,VWS V14.01,2013-06-27 12:55:00,
2013-06-27 09:00:00,76.1,72.3,29.75,West,269,0.0,6.0,88,0.00,,,0.00,135.00,VWS V14.01,2013-06-27 13:00:00,
2013-06-27 09:05:00,76.1,72.3,29.75,West,261,4.0,5.0,88,0.00,,,0.00,144.00,VWS V14.01,2013-06-27 13:05:00,
2013-06-27 09:10:00,76.3,72.5,29.75,West,281,6.0,9.0,88,0.00,,,0.00,153.00,VWS V14.01,2013-06-27 13:10:00,
2013-06-27 09:15:00,76.3,72.2,29.75,WSW,249,0.0,9.0,87,0.00,,,0.00,130.00,VWS V14.01,2013-06-27 13:15:00,
2013-06-27 09:20:00,76.5,72.3,29.75,West,273,0.0,9.0,87,0.00,,,0.00,123.00,VWS V14.01,2013-06-27 13:20:00,
2013-06-27 09:25:00,76.5,72.3,29.75,WSW,257,2.0,9.0,87,0.00,,,0.00,128.00,VWS V14.01,2013-06-27 13:25:00,
2013-06-27 09:30:00,76.5,72.0,29.74,West,260,0.0,9.0,86,0.00,,,0.00,130.00,VWS V14.01,2013-06-27 13:30:00,
2013-06-27 09:35:00,76.5,72.0,29.74,West,259,2.0,4.0,86,0.00,,,0.00,176.00,VWS V14.01,2013-06-27 13:35:00,
2013-06-27 09:40:00,76.8,72.6,29.74,NNW,348,0.0,4.0,87,0.00,,,0.00,575.00,VWS V14.01,2013-06-27 13:40:00,
2013-06-27 09:45:00,77.6,72.4,29.73,ESE,121,0.0,4.0,84,0.00,,,0.00,584.00,VWS V14.01,2013-06-27 13:45:00,
2013-06-27 09:50:00,78.5,72.6,29.73,SW,230,0.0,4.0,82,0.00,,,0.00,587.00,VWS V14.01,2013-06-27 13:50:00,
2013-06-27 09:55:00,78.8,72.5,29.73,WSW,251,0.0,4.0,81,0.00,,,0.00,585.00,VWS V14.01,2013-06-27 13:55:00,
2013-06-27 10:00:00,79.4,72.7,29.73,WSW,250,1.0,8.0,80,0.00,,,0.00,605.00,VWS V14.01,2013-06-27 14:00:00,
2013-06-27 10:05:00,79.8,72.3,29.73,West,259,0.0,5.0,78,0.00,,FEW065,0.00,555.00,VWS V14.01,2013-06-27 14:05:00,
2013-06-27 10:10:00,80.1,71.5,29.73,WSW,257,3.0,11.0,75,0.00,,FEW065,0.00,628.00,VWS V14.01,2013-06-27 14:10:00,
2013-06-27 10:15:00,80.5,71.8,29.73,West,262,0.0,11.0,75,0.00,,FEW065,0.00,645.00,VWS V14.01,2013-06-27 14:15:00,
2013-06-27 10:20:00,81.1,72.0,29.73,West,266,0.0,11.0,74,0.00,,FEW065,0.00,659.00,VWS V14.01,2013-06-27 14:20:00,
2013-06-27 10:25:00,81.4,72.3,29.73,West,279,0.0,11.0,74,0.00,,FEW065,0.00,689.00,VWS V14.01,2013-06-27 14:25:00,
2013-06-27 10:30:00,82.0,71.7,29.72,West,265,0.0,11.0,71,0.00,,FEW065,0.00,626.00,VWS V14.01,2013-06-27 14:30:00,
2013-06-27 10:35:00,82.6,71.0,29.72,WSW,256,0.0,10.0,68,0.00,,FEW065,0.00,705.00,VWS V14.01,2013-06-27 14:35:00,
2013-06-27 10:40:00,82.8,70.7,29.72,WNW,292,3.0,10.0,67,0.00,,FEW065,0.00,707.00,VWS V14.01,2013-06-27 14:40:00,
2013-06-27 10:45:00,83.0,70.5,29.72,West,281,3.0,10.0,66,0.00,,FEW065,0.00,715.00,VWS V14.01,2013-06-27 14:45:00,
2013-06-27 10:50:00,83.2,71.6,29.72,NW,306,3.0,14.0,68,0.00,,FEW065,0.00,729.00,VWS V14.01,2013-06-27 14:50:00,
2013-06-27 10:55:00,83.4,71.3,29.72,WSW,241,0.0,14.0,67,0.00,,FEW065,0.00,742.00,VWS V14.01,2013-06-27 14:55:00,
2013-06-27 11:00:00,83.8,71.2,29.72,NW,306,3.0,14.0,66,0.00,,FEW065,0.00,782.00,VWS V14.01,2013-06-27 15:00:00,
2013-06-27 11:05:00,83.8,70.8,29.72,WSW,250,2.0,11.0,65,0.00,,CLR,0.00,768.00,VWS V14.01,2013-06-27 15:05:00,
2013-06-27 11:10:00,83.8,69.9,29.72,West,263,8.0,13.0,63,0.00,,CLR,0.00,780.00,VWS V14.01,2013-06-27 15:10:00,
2013-06-27 11:15:00,83.8,70.3,29.72,West,261,4.0,14.0,64,0.00,,CLR,0.00,786.00,VWS V14.01,2013-06-27 15:15:00,
2013-06-27 11:20:00,84.1,70.6,29.72,West,276,4.0,14.0,64,0.00,,CLR,0.00,793.00,VWS V14.01,2013-06-27 15:20:00,
2013-06-27 11:25:00,84.3,71.3,29.72,West,269,0.0,14.0,65,0.00,,CLR,0.00,809.00,VWS V14.01,2013-06-27 15:25:00,
2013-06-27 11:30:00,84.5,71.0,29.71,West,263,1.0,14.0,64,0.00,,CLR,0.00,810.00,VWS V14.01,2013-06-27 15:30:00,
2013-06-27 11:35:00,84.7,71.6,29.71,WNW,287,3.0,4.0,65,0.00,,CLR,0.00,838.00,VWS V14.01,2013-06-27 15:35:00,
2013-06-27 11:40:00,85.1,71.6,29.71,West,280,6.0,6.0,64,0.00,,CLR,0.00,227.00,VWS V14.01,2013-06-27 15:40:00,
2013-06-27 11:45:00,85.1,70.6,29.71,SSE,163,1.0,10.0,62,0.00,,CLR,0.00,325.00,VWS V14.01,2013-06-27 15:45:00,
2013-06-27 11:50:00,85.3,71.8,29.71,SSW,201,0.0,10.0,64,0.00,,CLR,0.00,916.00,VWS V14.01,2013-06-27 15:50:00,
2013-06-27 11:55:00,85.5,71.9,29.71,West,279,0.0,10.0,64,0.00,,CLR,0.00,383.00,VWS V14.01,2013-06-27 15:55:00,
2013-06-27 12:00:00,85.3,71.8,29.71,WNW,286,4.0,15.0,64,0.00,,CLR,0.00,977.00,VWS V14.01,2013-06-27 16:00:00,
2013-06-27 12:05:00,84.9,70.9,29.71,West,275,4.0,10.0,63,0.00,,CLR,0.00,970.00,VWS V14.01,2013-06-27 16:05:00,
2013-06-27 12:10:00,85.1,71.1,29.71,WSW,253,0.0,10.0,63,0.00,,CLR,0.00,353.00,VWS V14.01,2013-06-27 16:10:00,
2013-06-27 12:15:00,85.3,71.8,29.71,WSW,242,3.0,10.0,64,0.00,,CLR,0.00,429.00,VWS V14.01,2013-06-27 16:15:00,
2013-06-27 12:20:00,85.3,72.7,29.71,WNW,284,2.0,12.0,66,0.00,,CLR,0.00,401.00,VWS V14.01,2013-06-27 16:20:00,
2013-06-27 12:25:00,85.3,69.8,29.71,West,270,5.0,16.0,60,0.00,,CLR,0.00,1055.00,VWS V14.01,2013-06-27 16:25:00,
2013-06-27 12:30:00,85.5,70.0,29.71,North,355,0.0,16.0,60,0.00,,CLR,0.00,981.00,VWS V14.01,2013-06-27 16:30:00,
2013-06-27 12:35:00,85.9,70.4,29.71,WSW,255,2.0,7.0,60,0.00,,CLR,0.00,956.00,VWS V14.01,2013-06-27 16:35:00,
2013-06-27 12:40:00,86.1,71.1,29.71,WSW,249,1.0,14.0,61,0.00,,CLR,0.00,912.00,VWS V14.01,2013-06-27 16:40:00,
2013-06-27 12:45:00,86.3,69.3,29.71,WNW,286,1.0,14.0,57,0.00,,CLR,0.00,411.00,VWS V14.01,2013-06-27 16:45:00,
2013-06-27 12:50:00,86.3,69.3,29.71,West,260,5.0,14.0,57,0.00,,CLR,0.00,967.00,VWS V14.01,2013-06-27 16:50:00,
2013-06-27 12:55:00,86.3,69.8,29.71,WSW,251,0.0,14.0,58,0.00,,CLR,0.00,1025.00,VWS V14.01,2013-06-27 16:55:00,
2013-06-27 13:00:00,86.5,69.0,29.70,NW,306,8.0,14.0,56,0.00,,CLR,0.00,343.00,VWS V14.01,2013-06-27 17:00:00,
2013-06-27 13:05:00,86.5,70.5,29.70,West,274,3.0,17.0,59,0.00,,BKN050,0.00,958.00,VWS V14.01,2013-06-27 17:05:00,
2013-06-27 13:10:00,86.5,69.5,29.70,West,274,6.0,17.0,57,0.00,,BKN050,0.00,1065.00,VWS V14.01,2013-06-27 17:10:00,
2013-06-27 13:15:00,86.7,69.7,29.70,WSW,257,5.0,17.0,57,0.00,,BKN050,0.00,954.00,VWS V14.01,2013-06-27 17:15:00,
2013-06-27 13:20:00,86.7,70.2,29.70,WSW,250,1.0,17.0,58,0.00,,BKN050,0.00,350.00,VWS V14.01,2013-06-27 17:20:00,
2013-06-27 13:25:00,87.0,70.4,29.70,WSW,248,1.0,17.0,58,0.00,,BKN050,0.00,504.00,VWS V14.01,2013-06-27 17:25:00,
2013-06-27 13:30:00,87.2,70.6,29.69,ESE,108,0.0,17.0,58,0.00,,BKN050,0.00,1102.00,VWS V14.01,2013-06-27 17:30:00,
2013-06-27 13:35:00,87.2,71.6,29.69,WNW,292,0.0,10.0,60,0.00,,BKN050,0.00,1121.00,VWS V14.01,2013-06-27 17:35:00,
2013-06-27 13:40:00,87.4,71.3,29.69,SSE,156,1.0,14.0,59,0.00,,BKN050,0.00,1121.00,VWS V14.01,2013-06-27 17:40:00,
2013-06-27 13:45:00,87.4,70.8,29.69,West,268,7.0,14.0,58,0.00,,BKN050,0.00,1013.00,VWS V14.01,2013-06-27 17:45:00,
2013-06-27 13:50:00,87.2,70.6,29.69,West,281,0.0,14.0,58,0.00,,BKN050,0.00,274.00,VWS V14.01,2013-06-27 17:50:00,
2013-06-27 13:55:00,87.0,71.4,29.69,West,274,7.0,14.0,60,0.00,,BKN050,0.00,990.00,VWS V14.01,2013-06-27 17:55:00,
2013-06-27 14:00:00,87.2,71.6,29.68,NNW,331,2.0,14.0,60,0.00,,BKN050,0.00,1021.00,VWS V14.01,2013-06-27 18:00:00,
2013-06-27 14:05:00,87.4,71.3,29.68,SSE,155,0.0,5.0,59,0.00,,BKN060,0.00,895.00,VWS V14.01,2013-06-27 18:05:00,
2013-06-27 14:10:00,87.8,71.2,29.68,WSW,253,5.0,5.0,58,0.00,,BKN060,0.00,967.00,VWS V14.01,2013-06-27 18:10:00,
2013-06-27 14:15:00,87.4,71.3,29.68,SSW,192,5.0,15.0,59,0.00,,BKN060,0.00,221.00,VWS V14.01,2013-06-27 18:15:00,
2013-06-27 14:20:00,87.0,71.4,29.68,WNW,287,10.0,15.0,60,0.00,,BKN060,0.00,984.00,VWS V14.01,2013-06-27 18:20:00,
2013-06-27 14:25:00,87.0,70.4,29.68,WSW,252,4.0,15.0,58,0.00,,BKN060,0.00,965.00,VWS V14.01,2013-06-27 18:25:00,
2013-06-27 14:30:00,86.7,70.2,29.68,West,274,6.0,17.0,58,0.00,,BKN060,0.00,881.00,VWS V14.01,2013-06-27 18:30:00,
2013-06-27 14:35:00,86.5,70.0,29.68,West,267,9.0,18.0,58,0.00,,BKN060,0.00,867.00,VWS V14.01,2013-06-27 18:35:00,
2013-06-27 14:40:00,86.7,71.2,29.68,SW,227,0.0,18.0,60,0.00,,BKN060,0.00,888.00,VWS V14.01,2013-06-27 18:40:00,
2013-06-27 14:45:00,87.0,71.4,29.68,West,261,5.0,18.0,60,0.00,,BKN060,0.00,911.00,VWS V14.01,2013-06-27 18:45:00,
2013-06-27 14:50:00,87.4,70.8,29.68,West,265,3.0,18.0,58,0.00,,BKN060,0.00,881.00,VWS V14.01,2013-06-27 18:50:00,
2013-06-27 14:55:00,87.6,72.5,29.68,West,280,3.0,18.0,61,0.00,,BKN060,0.00,846.00,VWS V14.01,2013-06-27 18:55:00,
2013-06-27 15:00:00,87.6,71.0,29.67,SW,221,1.0,18.0,58,0.00,,BKN060,0.00,838.00,VWS V14.01,2013-06-27 19:00:00,
2013-06-27 15:05:00,87.8,71.2,29.67,West,280,5.0,10.0,58,0.00,,SCT075,0.00,819.00,VWS V14.01,2013-06-27 19:05:00,
2013-06-27 15:10:00,87.6,70.0,29.67,WSW,257,4.0,11.0,56,0.00,,SCT075,0.00,830.00,VWS V14.01,2013-06-27 19:10:00,
2013-06-27 15:15:00,87.6,71.0,29.66,WSW,254,0.0,11.0,58,0.00,,SCT075,0.00,838.00,VWS V14.01,2013-06-27 19:15:00,
2013-06-27 15:20:00,87.8,71.2,29.66,West,275,4.0,11.0,58,0.00,,SCT075,0.00,851.00,VWS V14.01,2013-06-27 19:20:00,
2013-06-27 15:25:00,88.0,71.4,29.66,West,259,4.0,11.0,58,0.00,,SCT075,0.00,821.00,VWS V14.01,2013-06-27 19:25:00,
2013-06-27 15:30:00,88.2,72.1,29.66,West,266,0.0,11.0,59,0.00,,SCT075,0.00,816.00,VWS V14.01,2013-06-27 19:30:00,
2013-06-27 15:35:00,88.0,70.9,29.66,WNW,283,0.0,9.0,57,0.00,,SCT075,0.00,828.00,VWS V14.01,2013-06-27 19:35:00,
2013-06-27 15:40:00,88.0,70.9,29.66,WNW,301,1.0,9.0,57,0.00,,SCT075,0.00,816.00,VWS V14.01,2013-06-27 19:40:00,
2013-06-27 15:45:00,88.2,70.5,29.65,West,260,0.0,13.0,56,0.00,,SCT075,0.00,773.00,VWS V14.01,2013-06-27 19:45:00,
2013-06-27 15:50:00,88.2,71.1,29.65,WSW,244,0.0,13.0,57,0.00,,SCT075,0.00,752.00,VWS V14.01,2013-06-27 19:50:00,
2013-06-27 15:55:00,88.2,71.6,29.65,WSW,247,3.0,13.0,58,0.00,,SCT075,0.00,788.00,VWS V14.01,2013-06-27 19:55:00,
2013-06-27 16:00:00,88.2,70.5,29.64,SW,235,4.0,15.0,56,0.00,,SCT075,0.00,789.00,VWS V14.01,2013-06-27 20:00:00,
2013-06-27 16:05:00,88.0,69.8,29.64,South,169,6.0,14.0,55,0.00,,FEW042,0.00,793.00,VWS V14.01,2013-06-27 20:05:00,
2013-06-27 16:10:00,88.0,70.3,29.64,West,264,5.0,14.0,56,0.00,,FEW042,0.00,775.00,VWS V14.01,2013-06-27 20:10:00,
2013-06-27 16:15:00,88.2,70.5,29.64,West,265,7.0,14.0,56,0.00,,FEW042,0.00,788.00,VWS V14.01,2013-06-27 20:15:00,
2013-06-27 16:20:00,88.2,69.5,29.64,West,279,6.0,18.0,54,0.00,,FEW042,0.00,838.00,VWS V14.01,2013-06-27 20:20:00,
2013-06-27 16:25:00,88.4,70.2,29.64,West,259,6.0,18.0,55,0.00,,FEW042,0.00,756.00,VWS V14.01,2013-06-27 20:25:00,
2013-06-27 16:30:00,88.2,69.5,29.64,West,268,4.0,18.0,54,0.00,,FEW042,0.00,724.00,VWS V14.01,2013-06-27 20:30:00,
2013-06-27 16:35:00,88.4,69.1,29.64,West,267,4.0,18.0,53,0.00,,FEW042,0.00,661.00,VWS V14.01,2013-06-27 20:35:00,
2013-06-27 16:40:00,88.2,71.6,29.64,West,261,1.0,18.0,58,0.00,,FEW042,0.00,663.00,VWS V14.01,2013-06-27 20:40:00,
2013-06-27 16:45:00,88.4,72.3,29.63,West,263,1.0,18.0,59,0.00,,FEW042,0.00,673.00,VWS V14.01,2013-06-27 20:45:00,
2013-06-27 16:51:00,88.4,72.3,29.63,WNW,292,6.0,18.0,59,0.00,,FEW042,0.00,642.00,VWS V14.01,2013-06-27 20:51:00,
2013-06-27 16:56:00,88.2,72.6,29.63,WSW,247,3.0,18.0,60,0.00,,FEW042,0.00,613.00,VWS V14.01,2013-06-27 20:56:00,
2013-06-27 17:00:00,88.2,70.5,29.64,WSW,252,2.0,15.0,56,0.00,,OVC065,0.00,789.00,VWS V14.01,2013-06-27 21:00:00,
2013-06-27 17:01:00,88.0,71.9,29.62,West,276,9.0,10.0,59,0.00,,FEW042,0.00,501.00,VWS V14.01,2013-06-27 21:01:00,
2013-06-27 17:06:00,87.8,72.2,29.62,West,277,3.0,13.0,60,0.00,,FEW036,0.00,603.00,VWS V14.01,2013-06-27 21:06:00,
2013-06-27 17:11:00,87.8,72.7,29.62,West,266,4.0,13.0,61,0.00,,FEW036,0.00,564.00,VWS V14.01,2013-06-27 21:11:00,
2013-06-27 17:16:00,87.8,72.7,29.61,West,269,4.0,13.0,61,0.00,,FEW036,0.00,529.00,VWS V14.01,2013-06-27 21:16:00,
2013-06-27 17:22:00,87.8,72.7,29.61,SW,225,0.0,13.0,61,0.00,,FEW036,0.00,513.00,VWS V14.01,2013-06-27 21:22:00,
2013-06-27 17:27:00,88.2,73.1,29.61,WSW,237,0.0,13.0,61,0.00,,FEW036,0.00,584.00,VWS V14.01,2013-06-27 21:27:00,
2013-06-27 17:30:00,88.2,69.5,29.64,SW,225,5.0,18.0,54,0.00,,OVC065,0.00,724.00,VWS V14.01,2013-06-27 21:30:00,
2013-06-27 17:32:00,88.4,73.2,29.61,WSW,243,0.0,3.0,61,0.00,,FEW036,0.00,547.00,VWS V14.01,2013-06-27 21:32:00,
2013-06-27 17:37:00,88.4,72.8,29.61,West,263,4.0,4.0,60,0.00,,FEW036,0.00,221.00,VWS V14.01,2013-06-27 21:37:00,
2013-06-27 17:42:00,88.0,73.8,29.61,West,261,0.0,7.0,63,0.00,,FEW036,0.00,582.00,VWS V14.01,2013-06-27 21:42:00,
2013-06-27 17:47:00,88.0,74.3,29.61,West,272,0.0,7.0,64,0.00,,FEW036,0.00,629.00,VWS V14.01,2013-06-27 21:47:00,
2013-06-27 17:52:00,88.0,74.3,29.61,SW,233,0.0,10.0,64,0.00,,FEW036,0.00,214.00,VWS V14.01,2013-06-27 21:52:00,
2013-06-27 17:57:00,87.8,74.1,29.61,SSW,207,3.0,10.0,64,0.00,,FEW036,0.00,494.00,VWS V14.01,2013-06-27 21:57:00,
2013-06-27 18:00:00,88.0,71.9,29.62,WSW,245,6.0,18.0,59,0.00,,OVC065,0.00,536.00,VWS V14.01,2013-06-27 22:00:00,
2013-06-27 18:02:00,87.8,74.1,29.62,WNW,293,7.0,8.0,64,0.00,,CLR,0.00,478.00,VWS V14.01,2013-06-27 22:02:00,
2013-06-27 18:07:00,87.8,74.1,29.62,West,273,1.0,8.0,64,0.00,,CLR,0.00,450.00,VWS V14.01,2013-06-27 22:07:00,
2013-06-27 18:12:00,88.0,74.3,29.62,WSW,250,0.0,8.0,64,0.00,,CLR,0.00,422.00,VWS V14.01,2013-06-27 22:12:00,
2013-06-27 18:18:00,88.2,74.5,29.61,West,267,1.0,8.0,64,0.00,,CLR,0.00,406.00,VWS V14.01,2013-06-27 22:18:00,
2013-06-27 18:23:00,88.0,73.8,29.61,WSW,242,1.0,9.0,63,0.00,,CLR,0.00,392.00,VWS V14.01,2013-06-27 22:23:00,
2013-06-27 18:28:00,88.2,74.0,29.61,WNW,292,0.0,9.0,63,0.00,,CLR,0.00,352.00,VWS V14.01,2013-06-27 22:28:00,
2013-06-27 18:30:00,88.4,72.8,29.61,SW,221,0.0,13.0,60,0.00,,OVC065,0.00,547.00,VWS V14.01,2013-06-27 22:30:00,
2013-06-27 18:33:00,88.2,74.0,29.61,WNW,297,0.0,6.0,63,0.00,,CLR,0.00,348.00,VWS V14.01,2013-06-27 22:33:00,
2013-06-27 18:38:00,88.2,74.5,29.61,SW,228,1.0,6.0,64,0.00,,CLR,0.00,343.00,VWS V14.01,2013-06-27 22:38:00,
2013-06-27 18:43:00,88.2,75.0,29.61,West,259,0.0,7.0,65,0.00,,CLR,0.00,320.00,VWS V14.01,2013-06-27 22:43:00,
2013-06-27 18:48:00,87.8,75.0,29.61,West,267,0.0,7.0,66,0.00,,CLR,0.00,227.00,VWS V14.01,2013-06-27 22:48:00,
2013-06-27 18:53:00,87.6,74.4,29.61,West,267,0.0,7.0,65,0.00,,CLR,0.00,84.00,VWS V14.01,2013-06-27 22:53:00,
2013-06-27 18:58:00,86.7,74.0,29.61,SSE,150,0.0,7.0,66,0.00,,CLR,0.00,74.00,VWS V14.01,2013-06-27 22:58:00,
2013-06-27 19:00:00,87.8,73.6,29.62,WSW,252,0.0,10.0,63,0.00,,OVC065,0.00,482.00,VWS V14.01,2013-06-27 23:00:00,
2013-06-27 19:03:00,86.3,73.6,29.61,SW,232,1.0,6.0,66,0.00,,CLR,0.00,56.00,VWS V14.01,2013-06-27 23:03:00,
2013-06-27 19:08:00,85.9,74.1,29.61,South,182,1.0,6.0,68,0.00,,CLR,0.00,72.00,VWS V14.01,2013-06-27 23:08:00,
2013-06-27 19:13:00,85.7,73.9,29.61,South,183,0.0,6.0,68,0.00,,CLR,0.00,81.00,VWS V14.01,2013-06-27 23:13:00,
2013-06-27 19:19:00,85.7,73.9,29.62,WSW,249,1.0,6.0,68,0.00,,CLR,0.00,65.00,VWS V14.01,2013-06-27 23:19:00,
2013-06-27 19:24:00,85.5,73.7,29.62,WSW,249,0.0,6.0,68,0.00,,CLR,0.00,65.00,VWS V14.01,2013-06-27 23:24:00,
2013-06-27 19:29:00,85.3,74.0,29.62,WSW,249,0.0,6.0,69,0.00,,CLR,0.00,69.00,VWS V14.01,2013-06-27 23:29:00,
2013-06-27 19:30:00,88.2,74.5,29.61,West,259,0.0,9.0,64,0.00,,OVC065,0.00,313.00,VWS V14.01,2013-06-27 23:30:00,
2013-06-27 19:34:00,85.3,73.6,29.62,WSW,249,0.0,0.0,68,0.00,,CLR,0.00,77.00,VWS V14.01,2013-06-27 23:34:00,
2013-06-27 19:39:00,85.1,73.8,29.62,WSW,254,0.0,5.0,69,0.00,,CLR,0.00,79.00,VWS V14.01,2013-06-27 23:39:00,
2013-06-27 19:44:00,84.9,73.6,29.62,WSW,254,0.0,5.0,69,0.00,,CLR,0.00,72.00,VWS V14.01,2013-06-27 23:44:00,
2013-06-27 19:49:00,84.9,73.6,29.63,SW,225,0.0,5.0,69,0.00,,CLR,0.00,62.00,VWS V14.01,2013-06-27 23:49:00,
2013-06-27 19:54:00,84.7,73.8,29.63,SW,221,0.0,5.0,70,0.00,,CLR,0.00,54.00,VWS V14.01,2013-06-27 23:54:00,
2013-06-27 19:59:00,84.7,73.4,29.63,SW,221,0.0,5.0,69,0.00,,CLR,0.00,46.00,VWS V14.01,2013-06-27 23:59:00,
2013-06-27 20:00:00,86.5,74.2,29.61,West,265,0.0,7.0,67,0.00,,OVC065,0.00,62.00,VWS V14.01,2013-06-28 00:00:00,
2013-06-27 20:05:00,84.5,73.7,29.63,SW,221,0.0,0.0,70,0.00,,FEW095,0.00,39.00,VWS V14.01,2013-06-28 00:05:00,
2013-06-27 20:10:00,84.5,73.7,29.63,SW,221,0.0,1.0,70,0.00,,FEW095,0.00,32.00,VWS V14.01,2013-06-28 00:10:00,
2013-06-27 20:15:00,84.3,74.3,29.63,SW,221,0.0,1.0,72,0.00,,FEW095,0.00,26.00,VWS V14.01,2013-06-28 00:15:00,
2013-06-27 20:20:00,84.0,74.4,29.63,SW,221,0.0,1.0,73,0.00,,FEW095,0.00,21.00,VWS V14.01,2013-06-28 00:20:00,
2013-06-27 20:25:00,83.8,74.2,29.63,SW,221,0.0,1.0,73,0.00,,FEW095,0.00,18.00,VWS V14.01,2013-06-28 00:25:00,
2013-06-27 20:30:00,83.6,74.0,29.63,SW,223,0.0,1.0,73,0.00,,FEW095,0.00,14.00,VWS V14.01,2013-06-28 00:30:00,
2013-06-27 20:35:00,83.4,73.8,29.63,WSW,238,0.0,0.0,73,0.00,,FEW095,0.00,7.00,VWS V14.01,2013-06-28 00:35:00,
2013-06-27 20:40:00,83.2,74.1,29.63,WSW,252,4.0,4.0,74,0.00,,FEW095,0.00,0.00,VWS V14.01,2013-06-28 00:40:00,
2013-06-27 20:45:00,83.2,74.1,29.63,WSW,246,0.0,4.0,74,0.00,,FEW095,0.00,0.00,VWS V14.01,2013-06-28 00:45:00,
2013-06-27 20:50:00,83.0,74.7,29.63,WSW,252,0.0,4.0,76,0.00,,FEW095,0.00,0.00,VWS V14.01,2013-06-28 00:50:00,
2013-06-27 20:55:00,82.8,74.5,29.63,WNW,286,0.0,4.0,76,0.00,,FEW095,0.00,0.00,VWS V14.01,2013-06-28 00:55:00,
2013-06-27 21:00:00,82.6,74.7,29.64,WNW,302,0.0,4.0,77,0.00,,FEW095,0.00,0.00,VWS V14.01,2013-06-28 01:00:00,
2013-06-27 21:05:00,82.4,74.5,29.64,WNW,300,3.0,4.0,77,0.00,,CLR,0.00,0.00,VWS V14.01,2013-06-28 01:05:00,
2013-06-27 21:10:00,82.2,74.7,29.64,West,270,0.0,5.0,78,0.00,,CLR,0.00,0.00,VWS V14.01,2013-06-28 01:10:00,
2013-06-27 21:15:00,81.8,73.9,29.64,West,265,0.0,5.0,77,0.00,,CLR,0.00,0.00,VWS V14.01,2013-06-28 01:15:00,
2013-06-27 21:20:00,81.8,73.5,29.64,West,259,0.0,5.0,76,0.00,,CLR,0.00,0.00,VWS V14.01,2013-06-28 01:20:00,
2013-06-27 21:25:00,81.8,73.1,29.64,West,267,0.0,5.0,75,0.00,,CLR,0.00,0.00,VWS V14.01,2013-06-28 01:25:00,
2013-06-27 21:30:00,81.8,73.1,29.64,WSW,251,0.0,5.0,75,0.00,,CLR,0.00,0.00,VWS V14.01,2013-06-28 01:30:00,
2013-06-27 21:35:00,81.8,73.1,29.64,WSW,241,0.0,0.0,75,0.00,,CLR,0.00,0.00,VWS V14.01,2013-06-28 01:35:00,
2013-06-27 21:40:00,81.8,73.1,29.64,West,268,0.0,0.0,75,0.00,,CLR,0.00,0.00,VWS V14.01,2013-06-28 01:40:00,
2013-06-27 21:45:00,82.0,72.9,29.65,West,280,0.0,0.0,74,0.00,,CLR,0.00,0.00,VWS V14.01,2013-06-28 01:45:00,
2013-06-27 21:50:00,81.8,72.3,29.65,WSW,251,0.0,0.0,73,0.00,,CLR,0.00,0.00,VWS V14.01,2013-06-28 01:50:00,
2013-06-27 21:55:00,81.8,71.9,29.65,WSW,257,0.0,0.0,72,0.00,,CLR,0.00,0.00,VWS V14.01,2013-06-28 01:55:00,
2013-06-27 22:00:00,82.6,75.1,29.64,WNW,302,2.0,4.0,78,0.00,,OVC065,0.00,0.00,VWS V14.01,2013-06-28 02:00:00,
2013-06-27 22:01:00,81.6,72.9,29.65,SW,235,0.0,0.0,75,0.00,,CLR,0.00,0.00,VWS V14.01,2013-06-28 02:01:00,
2013-06-27 22:06:00,81.4,72.7,29.65,WSW,249,0.0,0.0,75,0.00,,CLR,0.00,0.00,VWS V14.01,2013-06-28 02:06:00,
2013-06-27 22:11:00,81.2,72.1,29.65,WSW,248,0.0,0.0,74,0.00,,CLR,0.00,0.00,VWS V14.01,2013-06-28 02:11:00,
2013-06-27 22:16:00,81.1,72.0,29.65,WSW,257,0.0,0.0,74,0.00,,CLR,0.00,0.00,VWS V14.01,2013-06-28 02:16:00,
2013-06-27 22:21:00,81.1,72.4,29.65,WSW,256,0.0,0.0,75,0.00,,CLR,0.00,0.00,VWS V14.01,2013-06-28 02:21:00,
2013-06-27 22:26:00,80.9,72.2,29.65,WSW,256,0.0,0.0,75,0.00,,CLR,0.00,0.00,VWS V14.01,2013-06-28 02:26:00,
2013-06-27 22:30:00,81.8,73.1,29.64,West,267,0.0,5.0,75,0.00,,OVC065,0.00,0.00,VWS V14.01,2013-06-28 02:30:00,
2013-06-27 22:31:00,80.7,71.7,29.66,WSW,257,0.0,0.0,74,0.00,,CLR,0.00,0.00,VWS V14.01,2013-06-28 02:31:00,
2013-06-27 22:37:00,80.7,71.7,29.66,WSW,256,0.0,0.0,74,0.00,,CLR,0.00,0.00,VWS V14.01,2013-06-28 02:37:00,
2013-06-27 22:42:00,80.5,71.5,29.66,WSW,257,0.0,0.0,74,0.00,,CLR,0.00,0.00,VWS V14.01,2013-06-28 02:42:00,
2013-06-27 22:47:00,80.3,71.7,29.66,WSW,256,0.0,0.0,75,0.00,,CLR,0.00,0.00,VWS V14.01,2013-06-28 02:47:00,
2013-06-27 22:52:00,80.3,71.7,29.66,WSW,252,0.0,0.0,75,0.00,,CLR,0.00,0.00,VWS V14.01,2013-06-28 02:52:00,
2013-06-27 22:57:00,80.3,71.7,29.66,WSW,252,0.0,0.0,75,0.00,,CLR,0.00,0.00,VWS V14.01,2013-06-28 02:57:00,
2013-06-27 23:00:00,81.6,72.9,29.65,SW,235,0.0,0.0,75,0.00,,OVC065,0.00,0.00,VWS V14.01,2013-06-28 03:00:00,
2013-06-27 23:02:00,80.3,71.7,29.66,WSW,252,0.0,0.0,75,0.00,,CLR,0.00,0.00,VWS V14.01,2013-06-28 03:02:00,
2013-06-27 23:07:00,80.3,71.3,29.66,WSW,252,0.0,0.0,74,0.00,,CLR,0.00,0.00,VWS V14.01,2013-06-28 03:07:00,
2013-06-27 23:12:00,80.3,72.8,29.66,WSW,252,0.0,0.0,78,0.00,,CLR,0.00,0.00,VWS V14.01,2013-06-28 03:12:00,
2013-06-27 23:18:00,80.1,69.9,29.66,West,263,0.0,0.0,71,0.00,,CLR,0.00,0.00,VWS V14.01,2013-06-28 03:18:00,
2013-06-27 23:23:00,80.5,69.8,29.66,West,270,0.0,0.0,70,0.00,,CLR,0.00,0.00,VWS V14.01,2013-06-28 03:23:00,
2013-06-27 23:28:00,81.1,69.1,29.66,West,275,0.0,0.0,67,0.00,,CLR,0.00,0.00,VWS V14.01,2013-06-28 03:28:00,
2013-06-27 23:30:00,80.7,71.2,29.66,WSW,256,0.0,0.0,73,0.00,,OVC065,0.00,0.00,VWS V14.01,2013-06-28 03:30:00,
2013-06-27 23:33:00,81.6,68.2,29.67,WSW,244,0.0,0.0,64,0.00,,CLR,0.00,0.00,VWS V14.01,2013-06-28 03:33:00,
2013-06-27 23:38:00,81.8,68.4,29.67,WSW,240,0.0,0.0,64,0.00,,CLR,0.00,0.00,VWS V14.01,2013-06-28 03:38:00,
2013-06-27 23:43:00,81.8,68.4,29.67,WSW,258,0.0,0.0,64,0.00,,CLR,0.00,0.00,VWS V14.01,2013-06-28 03:43:00,
2013-06-27 23:48:00,81.8,68.4,29.67,WNW,283,0.0,0.0,64,0.00,,CLR,0.00,0.00,VWS V14.01,2013-06-28 03:48:00,
2013-06-27 23:53:00,81.6,68.7,29.67,West,275,0.0,0.0,65,0.00,,CLR,0.00,0.00,VWS V14.01,2013-06-28 03:53:00,
2013-06-27 23:58:00,81.6,69.2,29.67,West,269,0.0,0.0,66,0.00,,CLR,0.00,0.00,VWS V14.01,2013-06-28 03:58:00,